カタログに戻る

STARLINK-5273

運用中通信VLEO
NORAD 54162·PAYLOAD·🇺🇸 United States

打ち上げ Oct 28, 2022 から Vandenberg Space Force Base

Loading…

次のパス (今後24時間)

TLE

最新Source: CelesTrak SupGP

元期: Sep 14, 2026, 21:42 UTC

1 54162C 22141F   26257.90465278  .00722210  00000+0  27528-1 0  2576
2 54162  53.1609 243.3585 0001372  88.4488 231.6373 15.25805319    12

AllMySatでSTARLINK-5273をリアルタイム追跡

Download on the App Store